Flag for Canada Weather past 2 weeks in Paradise, Newfoundland and Labrador, Canada

Now
30 °F

Snow flurries. Overcast.


Feels Like: 17 °F
Forecast: 14 / 30 °F
Wind: 23 mph from West

Location: St. John's

Current Time: Mar 5, 2015 at 12:43:37 PM

Latest Report: Mar 5, 2015 at 11:30 AM


Visibility: 8 mi

Pressure: 29.50 "Hg

Humidity: 93%

Dew point: 28 °F

Location of ParadiseLocation

Historic Weather in Paradise — Graph

°F

Paradise temperature yesterday

Maximum temperature yesterday: 37 °F (at 8:30 PM)
Minimum temperature yesterday: 10 °F (at 1:30 AM)
Average temperature yesterday: 20 °F

Past Weeks' High & Low Weather Summary

 TemperatureHumidityPressure
High45 °F (Feb 20, 8:30 AM)100% (Feb 18, 8:30 PM)30.55 "Hg (Feb 18, 8:30 PM)
Low9 °F (Feb 25, 12:30 AM)52% (Feb 28, 9:30 AM)28.77 "Hg (Mar 3, 4:30 AM)
Average24 °F81%29.88 "Hg
* Reported Feb 18 11:30 AM — Mar 5 11:30 AM, Paradise, Weather by CustomWeather, © 2015

Note: Actual official high and low records may vary slightly from our data, if they occured in-between our weather recording intervals... More about our weather records

Advertising

Paradise weather history for previous 24 hours

 ConditionsComfort  
Time TempWeatherWind HumidityBarometerVisibility
11:30 AM
Thu, Mar 5
30 °FSnow flurries. Overcast.23 mph93%29.50 "Hg8 mi
10:30 AM30 °FSnow flurries. Overcast.18 mph93%29.53 "Hg8 mi
9:30 AM28 °FSnow flurries. Overcast.10 mph80%29.55 "Hg8 mi
8:30 AM27 °FOvercast.13 mph80%29.57 "Hg15 mi
7:30 AM25 °FBroken clouds.12 mph74%29.58 "Hg15 mi
6:30 AM25 °FBroken clouds.15 mph74%29.57 "Hg15 mi
5:30 AM23 °FPartly cloudy.20 mph74%29.56 "Hg15 mi
4:30 AM25 °FPassing clouds.28 mph69%29.57 "Hg15 mi
3:30 AM27 °FPassing clouds.29 mph69%29.52 "Hg15 mi
2:30 AM28 °FPassing clouds.25 mph80%29.48 "Hg15 mi
1:30 AM28 °FPassing clouds.26 mph80%29.45 "Hg15 mi
12:30 AM28 °FPassing clouds.33 mph80%29.43 "Hg15 mi
11:30 PM
Wed, Mar 4
30 °FPassing clouds.36 mph80%29.42 "Hg15 mi
10:30 PM32 °FPassing clouds.31 mph93%29.34 "Hg15 mi
9:30 PM34 °FPassing clouds.29 mph93%29.31 "Hg15 mi
8:30 PM37 °FPassing clouds.28 mph93%29.28 "Hg12 mi
6:30 PM28 °FSnow. Ice fog.33 mph100%29.37 "Hg1 mi
5:30 PM25 °FCold.32 mph100%29.47 "Hg0 mi
4:30 PM23 °FHeavy snow. Ice fog.32 mph93%29.61 "Hg0 mi
3:30 PM21 °FSnow. Low clouds.24 mph93%29.72 "Hg1 mi
2:30 PM23 °FLight snow. Overcast.20 mph80%29.81 "Hg3 mi
1:30 PM25 °FLight snow. Broken clouds.17 mph63%29.88 "Hg15 mi
12:30 PM23 °FLight snow. Partly sunny.20 mph68%29.93 "Hg15 mi
Weather by CustomWeather, © 2015

See weather overviewHow to use our weather pages